Weather History for Imperial, NE

Change the Weather History Date:

Thursday, June 27, 2013

  Actual Average Record
Temperature  
Mean Temperature 78 °F 74 °F  
Max Temperature 90 °F 88 °F 104 °F (1933)
Min Temperature 66 °F 59 °F 41 °F (1985)
Degree Days  
Heating Degree Days 0 0  
Month to date heating degree days 24 34  
Since 1 June heating degree days 24 34  
Cooling Degree Days 13 9  
Month to date cooling degree days 206 157  
Year to date cooling degree days 274 201  
Since 1 June cooling degree days 206 157  
Growing Degree Days 30 (Base 50)    
Moisture  
Dew Point 59 °F    
Average Humidity 58    
Maximum Humidity 78    
Minimum Humidity 38    
Precipitation  
Precipitation 0.00 in 0.10 in 1.52 in (1915)
Sea Level Pressure  
Sea Level Pressure 29.96 in    
Wind  
Wind Speed 12 mph (NNE)    
Max Wind Speed 25 mph    
Max Gust Speed 32 mph    
Visibility 10 miles    
Events      
T = Trace of Precipitation, MM = Missing Value Source: NWS Daily Summary

Daily Weather History Graph

Daily Weather History Graph

Search for Another Location

Airport:

Trip Planner

Search our weather history database for the weather conditions in past years. The results will help you decide how hot, cold, wet, or windy it might be!

Date:

Astronomy

Jun. 27, 2013 Rise Set
Actual Time 5:18 AM MDT 8:21 PM MDT
Civil Twilight 4:44 AM MDT 8:54 PM MDT
Nautical Twilight 4:02 AM MDT 9:36 PM MDT
Astronomical Twilight 3:12 AM MDT 10:26 PM MDT
Moon 11:17 PM MDT (6/27) 10:22 AM MDT (6/27)
Length of Visible Light 16h 09m
Length of Day
15h 03m
Waning Gibbous, 76% of the Moon is Illuminated
Jun 27
Waning Gibbous
Jun 29
Last Quarter
Jul 8
New
Jul 15
First Quarter
Jul 22
Full

Hourly Weather History & Observations

Time (MDT) Temp. Heat Index Dew Point Humidity Pressure Visibility Wind Dir Wind Speed Gust Speed Precip Events Conditions
12:53 AM 75.9 °F - 54.0 °F 46% 29.85 in 10.0 mi South 6.9 mph - N/A   Clear
1:53 AM 75.0 °F - 55.0 °F 50% 29.85 in 10.0 mi SSW 8.1 mph - N/A   Clear
2:53 AM 71.1 °F - 57.0 °F 61% 29.85 in 10.0 mi SW 4.6 mph - N/A   Clear
3:53 AM 72.0 °F - 57.9 °F 61% 29.85 in 10.0 mi SW 8.1 mph - N/A   Clear
4:53 AM 70.0 °F - 57.9 °F 65% 29.86 in 8.0 mi West 6.9 mph - N/A   Clear
5:53 AM 72.0 °F - 57.0 °F 59% 29.88 in 10.0 mi West 9.2 mph - N/A   Clear
6:53 AM 75.9 °F - 57.9 °F 54% 29.87 in 10.0 mi West 11.5 mph - N/A   Clear
7:53 AM 79.0 °F - 53.1 °F 40% 29.90 in 10.0 mi NW 18.4 mph - N/A   Clear
8:53 AM 80.1 °F 80.6 °F 57.9 °F 47% 29.94 in 10.0 mi NNW 18.4 mph 24.2 mph N/A   Clear
9:53 AM 82.0 °F 83.4 °F 64.0 °F 54% 29.96 in 10.0 mi North 19.6 mph 26.5 mph N/A   Clear
10:53 AM 82.9 °F 84.4 °F 64.0 °F 53% 29.99 in 10.0 mi North 24.2 mph 31.1 mph N/A   Clear
11:53 AM 86.0 °F 86.8 °F 63.0 °F 46% 30.00 in 10.0 mi NNE 19.6 mph 26.5 mph N/A   Clear
12:53 PM 87.1 °F 87.5 °F 62.1 °F 43% 30.01 in 10.0 mi NNE 15.0 mph 24.2 mph N/A   Clear
1:53 PM 88.0 °F 87.9 °F 61.0 °F 40% 30.01 in 10.0 mi NNE 13.8 mph 25.3 mph N/A   Clear
2:53 PM 89.1 °F 89.0 °F 61.0 °F 39% 30.01 in 10.0 mi NNE 18.4 mph 24.2 mph N/A   Clear
3:53 PM 89.1 °F 88.8 °F 60.1 °F 38% 30.00 in 10.0 mi NE 17.3 mph 21.9 mph N/A   Clear
4:53 PM 88.0 °F 87.1 °F 59.0 °F 37% 29.99 in 10.0 mi NE 15.0 mph 21.9 mph N/A   Clear
5:53 PM 87.1 °F 86.5 °F 59.0 °F 39% 29.98 in 10.0 mi NNE 9.2 mph - N/A   Clear
6:53 PM 84.9 °F 84.4 °F 59.0 °F 41% 30.00 in 10.0 mi ENE 11.5 mph - N/A   Clear
7:53 PM 79.0 °F - 60.1 °F 52% 30.00 in 10.0 mi East 6.9 mph - N/A   Clear
8:53 PM 73.9 °F - 60.1 °F 62% 30.02 in 10.0 mi East 3.5 mph - N/A   Clear
9:53 PM 71.1 °F - 60.1 °F 68% 30.06 in 10.0 mi South 3.5 mph - N/A   Clear
10:53 PM 70.0 °F - 61.0 °F 73% 30.09 in 10.0 mi South 3.5 mph - N/A   Clear
11:53 PM 70.0 °F - 63.0 °F 78% 30.08 in 10.0 mi South 6.9 mph - N/A   Clear